Weather in Tojikobod

Tajikistan     39°07′16″N   70°51′06″E
temp.,
°C
wind,
m/s
gust,
m/s
humid.,
%
clouds,
%
prec.,
mm/h
press.,
hPa
HPBL,
m
25 february, thu
thu2523:00−5sw4596100 7.8 1019253
02:00−6ssw6792100 5.2 1022307
05:00−9ssw5693100 7.2 1026292
08:00−10sw5592100 1.5 1031333
11:00−10sw4589100 2.6 1030442
14:00−8sw5687100 0.7 1028580
17:00−10sw4590100 1.1 1029385
20:00−13ssw3493100 0.2 1032107
26 february, fri
fri2623:00−14ssw2393100 0.3 103299
02:00−13sw2291100 0.1 1030106
05:00−13sw2290100 0.2 102995
08:00−12sw1289100 0.1 1030106
11:00−9w2282100 0.1 1026465
14:00−8w3379100 0.1 1023603
17:00−9wsw2389100 0.2 1024170
20:00−14ssw2291100 0.0 102845
27 february, sat
sat2723:00−15s2288100 0.0 102932
02:00−16s228631 0.0 102921
05:00−16s128066 0.0 102925
08:00−14s1275100 0.0 103077
11:00−10wsw2374100 0.0 1027486
14:00−8w3392100 0.8 1026369
17:00−9w2292100 2.1 1027218
20:00−13se119284 0.2 103421
28 february, sun
sun2823:00−15ese228149 0.2 103523
02:00−16ese23677 0.0 103424
05:00−16ese33594 0.0 103225
08:00−15ese33550 0.0 103061
11:00−8ene33560 0.0 1023216
14:00−5ene22650 0.0 1019204
17:00−7e12790 0.0 101928
20:00−10se22540 0.0 102421
1 march, mon
mon123:00−11se23370 0.0 102621
02:00−12ese223510 0.0 102621
05:00−11ese223821 0.0 102721
08:00−10ese224784 0.0 102823
11:00−4e124776 0.0 1024173
14:00−2nne01610 0.0 1022188
17:00−4s01700 0.1 102328
20:00−8sse22580 0.0 102821